Location: Bakhuizen
(52.8696°N, 5.4575°E)
Time: 05:36:06
(UTC+00:00)

Nimbus 7 Rocket - Pass Details

Date: 01 October 2021
Orbit: 922 x 965 km, 99.4° (Epoch: 17 October)

Event Time Altitude Azimuth Distance (km) Brightness Sun altitude
Rises 22:23:51 0° 23° (NNE) 3,590 8.0 -39.0°
Reaches altitude 10° 22:26:41 10° 35° (NE) 2,646 7.1 -39.1°
Enters shadow 22:27:42 14° 42° (NE) 2,346 6.7 -39.2°
